• In Netherlands
  • List of Countries
  • For 7 days
  • Water Temperature
  • Satellite Maps
  • Weather Map
  • Weather Widgets
  • user-avatar
    Login

    Hourly Weather Albena

    Today, 28 July, Friday

    Time Temperature Precipitation Wind Pressure Humidity
    00:00 +19°C° 0.3 mm 4 mps 738 mmHg 80%
    01:00 +19°C° 0.3 mm 5 mps 738 mmHg 80%
    02:00 +17°C° 0 mm 5 mps 738 mmHg 86%
    03:00 +17°C° 0.6 mm 5 mps 738 mmHg 87%
    04:00 +17°C° 0.6 mm 6 mps 738 mmHg 87%
    05:00 +17°C° 0.6 mm 7 mps 738 mmHg 88%
    06:00 +17°C° 1.3 mm 7 mps 738 mmHg 87%
    07:00 +17°C° 1.3 mm 8 mps 739 mmHg 86%
    08:00 +17°C° 0 mm 9 mps 738 mmHg 87%
    09:00 +17°C° 1.7 mm 9 mps 739 mmHg 87%
    10:00 +17°C° 1.7 mm 9 mps 739 mmHg 87%
    11:00 +17°C° 1.7 mm 8 mps 739 mmHg 88%
    12:00 +18°C° 0.8 mm 8 mps 740 mmHg 85%
    13:00 +20°C° 0.8 mm 8 mps 740 mmHg 82%
    14:00 +21°C° 0.8 mm 7 mps 740 mmHg 80%
    15:00 +22°C° 0.1 mm 6 mps 740 mmHg 74%
    16:00 +23°C° 0.1 mm 6 mps 740 mmHg 68%
    17:00 +25°C° 0.1 mm 5 mps 741 mmHg 62%
    18:00 +23°C° 0 mm 4 mps 741 mmHg 63%
    19:00 +22°C° 0 mm 4 mps 741 mmHg 64%
    20:00 +22°C° 0 mm 3 mps 741 mmHg 65%
    21:00 +21°C° 0 mm 3 mps 742 mmHg 64%
    22:00 +21°C° 0 mm 4 mps 742 mmHg 64%
    23:00 +21°C° 0 mm 4 mps 742 mmHg 63%

    Tomorrow, 29 July, Saturday

    Time Temperature Precipitation Wind Pressure Humidity
    00:00 +20°C° 0 mm 4 mps 743 mmHg 64%
    01:00 +20°C° 0 mm 4 mps 743 mmHg 65%
    02:00 +19°C° 0 mm 4 mps 743 mmHg 66%
    03:00 +19°C° 0 mm 4 mps 743 mmHg 68%
    04:00 +18°C° 0 mm 4 mps 744 mmHg 69%
    05:00 +18°C° 0 mm 4 mps 744 mmHg 70%
    06:00 +20°C° 0 mm 4 mps 744 mmHg 66%
    07:00 +22°C° 0 mm 4 mps 745 mmHg 62%
    08:00 +23°C° 0 mm 4 mps 745 mmHg 58%
    09:00 +26°C° 0 mm 4 mps 745 mmHg 53%
    10:00 +28°C° 0 mm 4 mps 746 mmHg 47%
    11:00 +30°C° 0 mm 4 mps 746 mmHg 42%
    12:00 +30°C° 0 mm 4 mps 746 mmHg 41%
    13:00 +32°C° 0 mm 4 mps 746 mmHg 39%
    14:00 +32°C° 0 mm 4 mps 746 mmHg 37%
    15:00 +32°C° 0 mm 4 mps 746 mmHg 37%
    16:00 +32°C° 0 mm 4 mps 746 mmHg 38%
    17:00 +32°C° 0 mm 4 mps 746 mmHg 39%
    18:00 +29°C° 0 mm 3 mps 746 mmHg 45%
    19:00 +27°C° 0 mm 3 mps 746 mmHg 51%
    20:00 +25°C° 0 mm 2 mps 747 mmHg 58%
    21:00 +24°C° 0 mm 2 mps 747 mmHg 60%
    22:00 +24°C° 0 mm 2 mps 747 mmHg 61%
    23:00 +23°C° 0 mm 1 mps 748 mmHg 63%

    Day after tomorrow, 30 July, Sunday

    Time Temperature Precipitation Wind Pressure Humidity
    00:00 +23°C° 0 mm 1 mps 748 mmHg 63%
    01:00 +22°C° 0 mm 1 mps 748 mmHg 63%
    02:00 +22°C° 0 mm 1 mps 748 mmHg 62%
    03:00 +21°C° 0 mm 2 mps 748 mmHg 65%
    04:00 +20°C° 0 mm 2 mps 748 mmHg 68%
    05:00 +20°C° 0 mm 2 mps 749 mmHg 70%
    06:00 +21°C° 0 mm 3 mps 749 mmHg 66%
    07:00 +24°C° 0 mm 3 mps 749 mmHg 61%
    08:00 +26°C° 0 mm 4 mps 750 mmHg 57%
    09:00 +27°C° 0 mm 4 mps 750 mmHg 53%
    10:00 +28°C° 0 mm 4 mps 750 mmHg 49%
    11:00 +30°C° 0 mm 4 mps 750 mmHg 45%
    12:00 +30°C° 0 mm 4 mps 750 mmHg 44%
    13:00 +30°C° 0 mm 4 mps 749 mmHg 43%
    14:00 +32°C° 0 mm 4 mps 749 mmHg 41%
    15:00 +30°C° 0 mm 4 mps 749 mmHg 43%
    16:00 +30°C° 0 mm 4 mps 749 mmHg 46%
    17:00 +29°C° 0 mm 4 mps 749 mmHg 48%
    18:00 +27°C° 0 mm 4 mps 749 mmHg 56%
    19:00 +25°C° 0 mm 3 mps 749 mmHg 65%
    20:00 +22°C° 0 mm 3 mps 749 mmHg 73%
    21:00 +21°C° 0 mm 2 mps 749 mmHg 75%
    22:00 +21°C° 0 mm 2 mps 749 mmHg 78%
    23:00 +21°C° 0 mm 1 mps 750 mmHg 80%

    31 July, Monday

    Time Temperature Precipitation Wind Pressure Humidity
    00:00 +21°C° 0 mm 1 mps 749 mmHg 79%
    01:00 +20°C° 0 mm 1 mps 749 mmHg 79%
    02:00 +20°C° 0 mm 1 mps 749 mmHg 79%
    03:00 +19°C° 0 mm 2 mps 749 mmHg 77%
    04:00 +19°C° 0 mm 2 mps 749 mmHg 74%
    05:00 +19°C° 0 mm 2 mps 749 mmHg 72%
    06:00 +21°C° 0 mm 3 mps 749 mmHg 65%
    07:00 +24°C° 0 mm 3 mps 749 mmHg 59%
    08:00 +26°C° 0 mm 4 mps 750 mmHg 52%
    09:00 +27°C° 0 mm 4 mps 750 mmHg 48%
    10:00 +29°C° 0 mm 5 mps 750 mmHg 44%
    11:00 +30°C° 0 mm 5 mps 750 mmHg 40%
    12:00 +30°C° 0 mm 5 mps 750 mmHg 40%
    13:00 +32°C° 0 mm 6 mps 750 mmHg 39%
    14:00 +32°C° 0 mm 6 mps 749 mmHg 38%
    15:00 +32°C° 0 mm 6 mps 749 mmHg 40%
    16:00 +30°C° 0 mm 6 mps 749 mmHg 42%
    17:00 +29°C° 0 mm 6 mps 749 mmHg 44%
    18:00 +27°C° 0 mm 5 mps 749 mmHg 52%
    19:00 +25°C° 0 mm 5 mps 749 mmHg 60%
    20:00 +22°C° 0 mm 4 mps 749 mmHg 68%
    21:00 +21°C° 0 mm 4 mps 750 mmHg 72%
    22:00 +21°C° 0 mm 4 mps 750 mmHg 75%
    23:00 +20°C° 0 mm 3 mps 750 mmHg 79%

    1 August, Tuesday

    Time Temperature Precipitation Wind Pressure Humidity
    00:00 +20°C° 0 mm 3 mps 750 mmHg 80%
    01:00 +19°C° 0 mm 3 mps 750 mmHg 81%
    02:00 +19°C° 0 mm 3 mps 750 mmHg 82%
    03:00 +19°C° 0 mm 3 mps 750 mmHg 81%
    04:00 +19°C° 0 mm 4 mps 750 mmHg 80%
    05:00 +19°C° 0 mm 4 mps 750 mmHg 80%
    06:00 +21°C° 0 mm 4 mps 750 mmHg 72%
    07:00 +23°C° 0 mm 5 mps 750 mmHg 65%
    08:00 +26°C° 0 mm 6 mps 750 mmHg 57%
    09:00 +28°C° 0 mm 6 mps 750 mmHg 52%
    10:00 +30°C° 0 mm 6 mps 750 mmHg 47%
    11:00 +32°C° 0 mm 7 mps 750 mmHg 42%
    12:00 +33°C° 0 mm 7 mps 750 mmHg 41%
    13:00 +33°C° 0 mm 7 mps 750 mmHg 40%
    14:00 +33°C° 0 mm 8 mps 750 mmHg 39%
    15:00 +32°C° 0 mm 7 mps 750 mmHg 40%
    16:00 +30°C° 0 mm 7 mps 750 mmHg 42%
    17:00 +30°C° 0 mm 7 mps 749 mmHg 43%
    18:00 +28°C° 0 mm 6 mps 749 mmHg 51%
    19:00 +25°C° 0 mm 5 mps 749 mmHg 59%
    20:00 +22°C° 0 mm 4 mps 750 mmHg 67%
    21:00 +21°C° 0 mm 4 mps 749 mmHg 71%
    22:00 +21°C° 0 mm 4 mps 749 mmHg 74%
    23:00 +20°C° 0 mm 4 mps 749 mmHg 77%

    2 August, Wednesday

    Time Temperature Precipitation Wind Pressure Humidity
    00:00 +20°C° 0 mm 4 mps 749 mmHg 76%
    01:00 +20°C° 0 mm 4 mps 749 mmHg 75%
    02:00 +19°C° 0 mm 4 mps 749 mmHg 73%
    03:00 +19°C° 0 mm 4 mps 748 mmHg 73%
    04:00 +19°C° 0 mm 4 mps 748 mmHg 73%
    05:00 +19°C° 0 mm 4 mps 748 mmHg 73%
    06:00 +21°C° 0 mm 5 mps 749 mmHg 66%
    07:00 +23°C° 0 mm 5 mps 749 mmHg 60%
    08:00 +27°C° 0 mm 6 mps 749 mmHg 53%
    09:00 +28°C° 0 mm 6 mps 749 mmHg 47%
    10:00 +30°C° 0 mm 6 mps 749 mmHg 42%
    11:00 +33°C° 0 mm 6 mps 749 mmHg 37%
    12:00 +33°C° 0 mm 6 mps 749 mmHg 36%
    13:00 +33°C° 0 mm 6 mps 748 mmHg 35%
    14:00 +34°C° 0 mm 6 mps 748 mmHg 34%
    15:00 +33°C° 0 mm 6 mps 748 mmHg 36%
    16:00 +33°C° 0 mm 6 mps 748 mmHg 38%
    17:00 +32°C° 0 mm 6 mps 747 mmHg 40%
    18:00 +29°C° 0 mm 5 mps 747 mmHg 47%
    19:00 +26°C° 0 mm 4 mps 747 mmHg 54%
    20:00 +23°C° 0 mm 4 mps 747 mmHg 61%
    21:00 +22°C° 0 mm 4 mps 747 mmHg 63%
    22:00 +22°C° 0 mm 3 mps 747 mmHg 64%
    23:00 +21°C° 0 mm 3 mps 747 mmHg 66%
    Show more